Weather reports worldwide

Advertisment
Pontevedra, Spain (8044): temperature & dewpoint: 17.08.2019 14:00:00 - 23.08.2019 14:00:00 (CEST)Pontevedra, Spain (8044): wind speed: 17.08.2019 14:00:00 - 23.08.2019 14:00:00 (CEST)Pontevedra, Spain (8044): wind direction: 17.08.2019 14:00:00 - 23.08.2019 14:00:00 (CEST)Pontevedra, Spain (8044): reduced air pressure: 17.08.2019 14:00:00 - 23.08.2019 14:00:00 (CEST)Pontevedra, Spain (8044): visibility: 17.08.2019 14:00:00 - 23.08.2019 14:00:00 (CEST)Pontevedra, Spain (8044): precipitation: 17.08.2019 14:00:00 - 23.08.2019 14:00:00 (CEST)
Date & Time tt [°C] td [°C] ff [km/h] ff [kn] dd ppp [hPa] vv [km] rr [mm]
23.08.2019 14:00:00 - - - - - - - -
23.08.2019 13:00:00 25,7 16,3 8 4 SW 1016,6 20 0,0
23.08.2019 12:00:00 25,1 15,7 4 2 SW 1016,4 20 0,0
23.08.2019 11:00:00 23,1 16,2 8 4 SSW 1016,5 20 -
23.08.2019 10:00:00 23,1 15,2 4 2 S 1015,9 20 0,0
23.08.2019 09:00:00 21,2 13,9 2 1 SE 1015,5 20 0,0
23.08.2019 08:00:00 20,8 13,2 4 2 NE 1015,4 20 -
23.08.2019 07:00:00 21,2 13,1 9 5 E 1015,0 20 0,0
23.08.2019 06:00:00 21,7 13,3 15 8 ENE 1015,0 20 0,0
23.08.2019 05:00:00 22,0 13,9 9 5 ENE 1015,4 20 -
23.08.2019 04:00:00 22,2 14,3 5 3 E 1015,3 20 0,0
23.08.2019 03:00:00 23,0 14,3 11 6 E 1015,5 20 0,0
23.08.2019 02:00:00 23,2 16,0 8 4 ENE 1015,7 20 -
23.08.2019 01:00:00 23,0 16,1 5 3 ENE 1015,9 20 0,0
23.08.2019 00:00:00 22,6 15,9 2 1 S 1016,2 20 0,0
22.08.2019 23:00:00 23,6 14,9 2 1 NNE 1016,2 20 -
22.08.2019 22:00:00 25,0 12,9 8 4 ENE 1016,0 20 0,0
22.08.2019 21:00:00 26,4 14,2 2 1 ESE 1016,0 20 0,0
22.08.2019 20:00:00 28,3 13,4 5 3 SSW 1015,7 20 -
22.08.2019 19:00:00 29,6 14,2 8 4 SW 1015,9 20 0,0
22.08.2019 18:00:00 30,8 14,0 5 3 SSW 1015,9 20 0,0
22.08.2019 17:00:00 32,1 13,8 8 4 SW 1015,8 20 -
22.08.2019 16:00:00 31,9 13,6 5 3 S 1016,5 20 0,0
22.08.2019 15:00:00 30,8 13,6 8 4 WSW 1016,9 20 0,0
22.08.2019 14:00:00 29,7 15,4 4 2 WNW 1017,2 20 -
22.08.2019 13:00:00 27,5 16,8 4 2 W 1017,7 1,7 0,0
22.08.2019 12:00:00 24,0 16,5 5 3 S 1018,0 20 0,0
22.08.2019 11:00:00 20,6 14,5 4 2 NW 1017,8 20 -
22.08.2019 10:00:00 18,1 14,0 2 1 WNW 1017,7 20 0,0
22.08.2019 09:00:00 15,4 12,5 4 2 NE 1018,0 20 0,0
22.08.2019 08:00:00 14,5 12,2 4 2 E 1018,0 20 -
22.08.2019 07:00:00 14,6 11,7 2 1 S 1017,9 20 0,0
22.08.2019 06:00:00 14,3 11,3 2 1 NE 1018,0 20 0,0
22.08.2019 05:00:00 15,4 12,0 4 2 NE 1018,5 20 -
22.08.2019 04:00:00 16,2 12,4 5 3 NNE 1018,3 20 0,0
22.08.2019 03:00:00 17,5 13,0 4 2 N 1018,5 20 0,0
22.08.2019 02:00:00 18,6 13,0 11 6 E 1018,6 20 -
22.08.2019 01:00:00 19,8 13,0 5 3 NE 1019,0 20 0,0
22.08.2019 00:00:00 20,8 13,0 13 7 NNE 1018,9 20 0,0
21.08.2019 23:00:00 22,2 14,1 9 5 N 1019,1 20 -
21.08.2019 22:00:00 23,7 14,9 8 4 N 1018,5 17 0,0
21.08.2019 21:00:00 26,1 15,8 11 6 NNW 1017,6 20 0,0
21.08.2019 20:00:00 28,5 15,4 8 4 N 1017,2 20 -
21.08.2019 19:00:00 29,7 15,4 11 6 NNW 1017,0 20 0,0
21.08.2019 18:00:00 30,0 15,7 15 8 NW 1016,9 20 0,0
21.08.2019 17:00:00 30,1 16,5 16 9 NW 1017,0 20 -
21.08.2019 16:00:00 29,7 16,8 18 10 WNW 1016,9 20 0,0
21.08.2019 15:00:00 28,5 17,4 13 7 W 1017,6 20 0,0
21.08.2019 14:00:00 27,2 16,2 11 6 WNW 1018,1 20 -
21.08.2019 13:00:00 25,4 16,3 8 4 W 1018,5 20 0,0
21.08.2019 12:00:00 23,4 15,7 5 3 NW 1018,6 20 0,0
21.08.2019 11:00:00 20,2 14,6 4 2 SW 1018,6 20 -
21.08.2019 10:00:00 18,4 14,9 2 1 SW 1018,4 20 0,0
21.08.2019 09:00:00 16,1 13,6 2 1 WSW 1018,1 20 0,0
21.08.2019 08:00:00 16,0 13,1 4 2 N 1017,8 20 -
21.08.2019 07:00:00 17,1 13,6 5 3 SE 1017,6 20 0,0
21.08.2019 06:00:00 18,0 13,5 8 4 ENE 1017,5 20 0,0
21.08.2019 05:00:00 16,6 13,7 4 2 W 1017,7 10 -
21.08.2019 04:00:00 17,4 13,5 4 2 N 1018,2 10 0,0
21.08.2019 03:00:00 18,1 13,6 2 1 SE 1018,5 20 0,0
21.08.2019 02:00:00 19,2 13,6 4 2 NE 1018,5 20 -
21.08.2019 01:00:00 19,6 13,5 9 5 NNE 1018,6 20 0,0
21.08.2019 00:00:00 20,1 13,5 8 4 N 1019,1 20 0,0
20.08.2019 23:00:00 20,9 13,8 11 6 N 1019,2 20 -
20.08.2019 22:00:00 21,8 14,2 8 4 N 1018,8 20 0,0
20.08.2019 21:00:00 23,3 14,8 8 4 N 1018,4 20 0,0
20.08.2019 20:00:00 25,0 14,8 13 7 NNW 1018,3 20 -
20.08.2019 19:00:00 26,3 14,7 18 10 NW 1018,1 20 0,0
20.08.2019 18:00:00 27,3 15,3 16 9 NW 1017,9 20 0,0
20.08.2019 17:00:00 27,5 15,2 13 7 NNW 1018,0 20 -
20.08.2019 16:00:00 27,2 15,2 13 7 NW 1018,7 20 0,0
20.08.2019 15:00:00 26,9 14,6 8 4 NNW 1019,3 20 0,0
20.08.2019 14:00:00 25,0 13,9 9 5 N 1020,0 20 -
20.08.2019 13:00:00 23,7 13,8 11 6 N 1020,4 20 0,0
20.08.2019 12:00:00 22,1 13,7 11 6 NNW 1020,8 20 0,0
20.08.2019 11:00:00 20,2 13,2 9 5 NNW 1020,9 20 -
20.08.2019 10:00:00 18,1 12,8 11 6 N 1021,0 20 0,0
20.08.2019 09:00:00 16,0 12,0 9 5 NNE 1020,9 20 0,0
20.08.2019 08:00:00 14,5 11,5 4 2 NNW 1020,7 20 -
20.08.2019 07:00:00 14,7 11,7 5 3 N 1020,4 20 0,0
20.08.2019 06:00:00 15,1 11,5 8 4 NNW 1019,8 20 0,0
20.08.2019 05:00:00 14,1 11,3 4 2 NNE 1019,8 20 -
20.08.2019 04:00:00 14,4 11,4 5 3 N 1019,7 19 0,0
20.08.2019 03:00:00 14,6 11,4 4 2 NNE 1019,9 20 0,0
20.08.2019 02:00:00 15,7 11,3 5 3 NNW 1020,4 20 -
20.08.2019 01:00:00 16,1 11,0 5 3 NNW 1020,3 20 0,0
20.08.2019 00:00:00 16,7 11,0 5 3 NNW 1020,1 20 0,0
19.08.2019 23:00:00 17,2 11,5 9 5 NNW 1019,9 20 -
19.08.2019 22:00:00 18,1 11,6 11 6 NNW 1019,3 20 0,0
19.08.2019 21:00:00 19,5 12,5 9 5 NNW 1018,7 20 0,0
19.08.2019 20:00:00 20,9 13,1 16 9 NNW 1018,3 20 -
19.08.2019 19:00:00 22,4 13,5 18 10 NNW 1018,1 20 0,0
19.08.2019 18:00:00 22,8 13,3 21 11 NW 1017,7 20 0,0
19.08.2019 17:00:00 23,8 12,7 18 10 NNW 1017,8 20 -
19.08.2019 16:00:00 23,8 13,1 15 8 NNW 1018,1 20 0,0
19.08.2019 15:00:00 23,3 11,4 18 10 NNW 1018,3 20 0,0
19.08.2019 14:00:00 22,7 10,8 11 6 NNE 1018,4 20 -
19.08.2019 13:00:00 22,0 12,5 9 5 N 1019,0 20 0,0
19.08.2019 12:00:00 19,9 12,2 11 6 NNW 1019,2 20 0,0
19.08.2019 11:00:00 19,0 11,6 11 6 N 1019,1 20 -
19.08.2019 10:00:00 16,7 11,0 8 4 N 1019,0 20 0,0
19.08.2019 09:00:00 14,8 11,0 8 4 NNE 1019,1 20 0,0
19.08.2019 08:00:00 14,0 10,4 5 3 NE 1019,3 20 -
19.08.2019 07:00:00 14,0 10,6 2 1 SSW 1019,3 20 0,0
19.08.2019 06:00:00 14,5 10,5 5 3 NNE 1019,0 20 0,0
19.08.2019 05:00:00 14,5 10,3 4 2 NE 1019,0 20 -
19.08.2019 04:00:00 14,4 10,8 2 1 NW 1019,5 20 0,0
19.08.2019 03:00:00 14,8 10,8 5 3 NE 1019,8 20 0,0
19.08.2019 02:00:00 14,9 11,1 5 3 N 1019,9 20 -
19.08.2019 01:00:00 15,4 11,0 4 2 N 1019,9 20 0,0
19.08.2019 00:00:00 16,0 11,4 9 5 NNW 1020,0 18 0,0
18.08.2019 23:00:00 16,6 11,1 8 4 N 1019,2 20 -
18.08.2019 22:00:00 17,9 11,5 11 6 NNW 1018,1 20 0,0
18.08.2019 21:00:00 19,8 12,5 13 7 NNW 1017,2 20 0,0
18.08.2019 20:00:00 21,3 13,5 11 6 NW 1016,8 20 -
18.08.2019 19:00:00 21,9 14,8 9 5 W 1016,4 20 0,0
18.08.2019 18:00:00 23,8 14,5 13 7 W 1016,1 20 0,0
18.08.2019 17:00:00 23,0 14,8 11 6 NNW 1016,1 20 -
18.08.2019 16:00:00 22,9 14,5 11 6 NW 1016,1 20 0,0
18.08.2019 15:00:00 21,5 15,3 9 5 NW 1016,2 20 0,0
18.08.2019 14:00:00 20,7 15,5 9 5 N 1016,2 20 -
18.08.2019 13:00:00 19,1 15,4 11 6 NNW 1016,3 20 0,0
18.08.2019 12:00:00 18,3 15,4 13 7 NNW 1016,1 20 0,0
18.08.2019 11:00:00 17,7 16,0 16 9 NW 1015,2 20 -
18.08.2019 10:00:00 17,5 16,5 9 5 NW 1014,4 20 0,0
18.08.2019 09:00:00 17,7 16,7 8 4 NNE 1013,5 7 0,0
18.08.2019 08:00:00 18,1 17,5 8 4 WNW 1012,7 18 -
18.08.2019 07:00:00 19,0 18,5 8 4 SSW 1011,9 4,1 1,0
18.08.2019 06:00:00 19,5 19,0 4 2 WSW 1011,7 1,6 9,0
18.08.2019 05:00:00 19,7 18,9 5 3 SW 1012,1 6 -
18.08.2019 04:00:00 20,5 18,8 8 4 S 1012,4 6 0,0
18.08.2019 03:00:00 20,6 18,5 11 6 S 1012,9 20 0,0
18.08.2019 02:00:00 20,7 18,5 9 5 S 1013,4 20 -
18.08.2019 01:00:00 20,6 18,4 5 3 SSW 1013,9 20 0,0
18.08.2019 00:00:00 20,6 18,4 5 3 S 1014,4 20 0,0
17.08.2019 23:00:00 20,6 18,4 4 2 S 1014,5 20 -
17.08.2019 22:00:00 21,1 18,5 4 2 SSW 1014,0 20 0,0
17.08.2019 21:00:00 21,9 18,7 8 4 SW 1014,0 20 0,0
17.08.2019 20:00:00 22,8 19,0 13 7 WSW 1014,6 20 -
17.08.2019 19:00:00 22,8 18,8 15 8 SW 1014,8 20 0,0
17.08.2019 18:00:00 22,4 19,0 18 10 SW 1015,0 20 0,0
17.08.2019 17:00:00 22,7 18,9 15 8 SSW 1015,2 20 -
17.08.2019 16:00:00 22,9 18,9 13 7 SW 1015,5 20 0,0
17.08.2019 15:00:00 22,3 18,7 9 5 SW 1015,8 20 0,0
17.08.2019 14:00:00 23,0 18,7 13 7 SW 1016,1 20 -

tt = temperature
td = dewpoint
ff = wind speed
dd = wind direction
ppp = reduced air pressure
vv = visibility
rr = precipitation

Next stations